Overview Statistics Trail Chart Weather Telemetry Raw packets
 

This is the latest recevied weather packets stored in our database for station/object K2CAT. If no packets are shown the sender has not sent any weather packets the latest 10 day(s).

<< 85 86 87 88 89 90 91 >>
Time Temp. Humidity Pressure Rain* Wind** Luminosity Snow
1777074750 12.78° C 41% 1010.8 hPa 0 mm - 1 W/m² -
1777074446 12.78° C 41% 1010.9 hPa 0 mm - 2 W/m² -
1777074143 13.33° C 39% 1010.9 hPa 0 mm - 3 W/m² -
1777073839 13.89° C 36% 1011.1 hPa 0 mm - 6 W/m² -
1777073534 13.89° C 35% 1011.2 hPa 0 mm - 10 W/m² -
1777073230 13.89° C 36% 1011.5 hPa 0 mm - 13 W/m² -
1777072927 14.44° C 34% 1011.4 hPa 0 mm - 15 W/m² -
1777072622 14.44° C 33% 1011.4 hPa 0 mm - 17 W/m² -
1777072316 15° C 32% 1011.2 hPa 0 mm - 17 W/m² -
1777072015 15° C 32% 1011 hPa 0 mm - 19 W/m² -
1777071712 15° C 32% 1010.9 hPa 0 mm - 21 W/m² -
1777071409 15° C 29% 1010.8 hPa 0 mm - 24 W/m² -
1777071109 15.56° C 30% 1010.8 hPa 0 mm - 26 W/m² -
1777070805 15.56° C 30% 1010.8 hPa 0 mm - 31 W/m² -
1777070503 15.56° C 28% 1010.7 hPa 0 mm - 33 W/m² -
1777070202 16.11° C 28% 1010.6 hPa 0 mm - 35 W/m² -
1777069897 16.11° C 28% 1010.5 hPa 0 mm - 36 W/m² -
1777069596 16.11° C 28% 1010.3 hPa 0 mm - 38 W/m² -
1777069292 16.11° C 27% 1010.5 hPa 0 mm - 39 W/m² -
1777068989 16.11° C 29% 1010.4 hPa 0 mm - 40 W/m² -
1777068686 16.11° C 27% 1010.7 hPa 0 mm - 44 W/m² -
1777068385 16.67° C 27% 1010.3 hPa 0 mm - 125 W/m² -
1777068080 16.67° C 26% 1010.5 hPa 0 mm - 136 W/m² -
1777067780 16.67° C 27% 1010.3 hPa 0 mm - 152 W/m² -
1777067479 17.22° C 27% 1010.4 hPa 0 mm - 165 W/m² -

* Rain latest hour (hover to see other rain measurements)
** Current wind speed in m/s (hover to see current wind gust speed)